Regional Weather Roundup
Issued by NWS

Home | Current Version | Previous Version | Text Only | Print | Product List | Glossary Off
Versions: 1 2 3 4 5 6 7 8 9 10 11 12 13 14 15 16 17 18 19 20 21 22 23 24 25 26 27

000
ASUS45 KBOU 240107
RWRCO

WEATHER ROUNDUP FOR COLORADO
NATIONAL WEATHER SERVICE DENVER/BOULDER CO
600 PM MST THU FEB 23 2017

NOTE: "FAIR" INDICATES FEW OR NO CLOUDS BELOW 12000 FEET WITH NO
SIGNIFICANT WEATHER AND/OR OBSTRUCTIONS TO VISIBILITY.

COZ001>005-013-030-031-240200-
...NORTHWEST COLORADO...

CITY           SKY/WX    TMP DP  RH WIND       PRES   REMARKS
CRAIG          CLOUDY    24  18  77 W10       29.71R WCI  14
HAYDEN         MOCLDY    25  14  63 NW9       29.69R WCI  15
MEEKER         CLOUDY    25  21  85 SW5       29.71R WCI  19
MOUNT WERNER   NOT AVBL
STEAMBOAT SPGS CLOUDY    20  17  86 E3        29.68R
WALDEN         NOT AVBL
$$

COZ006>008-011-240200-
...WEST CENTRAL VALLEYS...

CITY           SKY/WX    TMP DP  RH WIND       PRES   REMARKS
GRAND JUNCTION CLOUDY    34  18  52 N9        29.75R WCI  27
MONTROSE       FAIR      34   0  23 W13       29.76R WCI  25
EAGLE          PTCLDY    27  12  54 W15G21    29.73R WCI  15
RIFLE          MOCLDY    31  19  61 CALM      29.74R
DELTA          FAIR      38   5  25 W10       29.75R
NUCLA          FAIR      32   5  32 NW7       29.80R WCI  26
$$

COZ017>023-064>068-240200-
...SOUTHWEST COLORADO...

CITY           SKY/WX    TMP DP  RH WIND       PRES   REMARKS
DURANGO        FAIR      30   1  29 W17G23    29.75R WCI  18
CORTEZ         FAIR      32   7  35 SW8       29.77R WCI  25
PAGOSA SPRINGS FAIR      27  -2  28 W10G16    29.73R WCI  18
TELLURIDE      LGT SNOW  16  12  84 NW3       29.74R VSB 1
WOLF CREEK PAS CLOUDY     5  -4  66 SW20G30   29.67R WCI -15
$$

COZ009-010-012-014-032>034-037-058>063-240200-
...CENTRAL COLORADO...

CITY           SKY/WX    TMP DP  RH WIND       PRES   REMARKS
ASPEN          CLOUDY    21   8  57 VRB3      29.67R
BUENA VISTA    FAIR      20  10  65 SW7       29.66R WCI  11
COPPER MTN     LGT SNOW   7   0  72 MISG      29.56R VSB 3/4
BERTHOUD PASS  FAIR      -4 -13  65 MISG      29.53R
COTTONWOOD PAS CLOUDY    18   3  53 W9G18     29.61S WCI   6
GUNNISON       FLURRIES  19  12  74 CALM      29.72R
KREMMLING      FAIR      28  10  47 SW8       29.68R WCI  20
LEADVILLE      MOCLDY     8   2  76 N6        29.60R WCI  -2
MONARCH PASS   CLOUDY     3   0  85 W38G45    29.66R FOG     WCI -24
SALIDA         FAIR      27   2  35 W10G20    29.75R WCI  17
SUNLIGHT       NOT AVBL
WILKERSON PASS FAIR      10 -11  37 W7G17     29.60R WCI   0
$$

COZ069>075-240200-
...SAN LUIS VALLEY/SANGRE DE CRISTO MOUNTAINS...

CITY           SKY/WX    TMP DP  RH WIND       PRES   REMARKS
ALAMOSA        FAIR      28   5  37 W15       29.69R WCI  16
LA VETA PASS   FAIR      18   1  49 SW24G36   29.59R WCI   0
SAGUACHE       FAIR      23  10  58 NW12      29.70R WCI  12
$$

COZ035-036-038>040-240200-
...NORTHERN COLORADO FRONT RANGE...

CITY           SKY/WX    TMP DP  RH WIND       PRES   REMARKS
DENVER INTL AP LGT SNOW  21  16  81 N17       29.75R VSB 1   WCI   7
DMNS CITY PARK   N/A     22  19  87 N9G21     29.78R WCI  12
AURORA         FLURRIES  20  19  96 N14       29.76R WCI   7
FRONT RANGE AP NOT AVBL
ERIE MUNI ARPT CLOUDY    23  19  84 N12       29.79R WCI  12
BOULDER MUN AP FLURRIES  23  19  86 N9        29.79R WCI  13
CENTENNIAL     SNOW      21  18  88 N17G24    29.73R VSB 1/2 WCI   7
BROOMFIELD     LGT SNOW  21  19  93 N12G17    29.76R WCI   9
FORT COLLINS   FAIR      20  15  81 NE15      29.80R WCI   6
LONGMONT       FLURRIES  26  18  72 N7        29.82R WCI  18
$$

COZ041-046-047-076>085-087-088-240200-
...PIKES PEAK/PALMER DIVIDE AND SOUTHERN FOOTHILLS...

CITY           SKY/WX    TMP DP  RH WIND       PRES   REMARKS
COLO. SPRINGS  FAIR      27  16  63 N21G36    29.65R WCI  13
A. F. ACADEMY  PTCLDY    23  16  75 N20G28    29.66R WCI   8
SCHRIEVER AFB  FLURRIES  27  21  78 N18G28    29.65  WCI  14
ELLICOTT       FAIR     N/A N/A N/A NE16      29.64R
FALCON         LGT SNOW  22  17  81 N16G30    29.65R WCI   8
FORT CARSON    FAIR      29  16  60 N22G29    29.65R WCI  15
LIMON          FRZ RAIN  22  21  96 N21       29.69R FOG     WCI   6
MONUMENT HILL  LGT SNOW  19  18  93 N10       29.69R WCI   8
TRINIDAD       FAIR      40  -1  18 W24G31    29.63R
$$

COZ042>045-048>051-090-091-240200-
...NORTHEAST COLORADO...

CITY           SKY/WX    TMP DP  RH WIND       PRES   REMARKS
GREELEY ARPT   FAIR      22  17  81 N18       29.81R WCI   7
AKRON          LGT SNOW  20  17  88 N16       29.73R FOG     WCI   6
BURLINGTON     CLOUDY    28  24  85 N21       29.67R WCI  15
WRAY           NOT AVBL
STERLING       LGT SNOW  25  21  86 N13       29.77R WCI  13
HOLYOKE        LGT SNOW  27  25  93 N8        29.75R WCI  18
FORT MORGAN    CLOUDY    21  18  88 N17       29.78R WCI   7
$$

COZ086-089-092>099-240200-
...SOUTHEAST COLORADO...

CITY           SKY/WX    TMP DP  RH WIND       PRES   REMARKS
PUEBLO         FAIR      40  23  50 N18G30    29.63R
LA JUNTA       CLOUDY    40  28  62 N23G31    29.63R
LAMAR          CLOUDY    37  28  70 NE18G24   29.62R
SPRINGFIELD      N/A     39  31  72 N14       29.58R
$$




USA.gov is the U.S. government's official web portal to all federal, state and local government web resources and services.